Location: Cerezo de Arriba
(41.2389°N, 3.5585°W)
Time: 16:25:44
(UTC+00:00)

NOSS 3-1 (C) - Pass Details

Date: 19 May 2025
Orbit: 625 x 1577 km, 63.4° (Epoch: 18 June)

Event Time Altitude Azimuth Distance (km) Brightness Sun altitude
Rises 20:14:34 0° 179° (S) 2,901 5.6 -8.0°
Reaches altitude 10° 20:17:04 10° 165° (SSE) 2,034 4.8 -8.3°
Maximum altitude 20:20:43 24° 111° (ESE) 1,403 3.8 -8.9°
Drops below altitude 10° 20:24:46 10° 58° (ENE) 2,292 5.3 -9.5°
Sets 20:27:46 0° 45° (NE) 3,366 6.3 -9.9°
